[[{"header":{"parameterUnit":"m.s-1","parameterCategory":1,"la1":30.2991,"la2":30.254,"lo1":-89.0895,"lo2":-89.0444,"dy":0.0017,"dx":0.0017,"nx":28,"ny":28,"refTime":"2025-08-17T09:00:00:Z","depth":0,"parameterNumber":2,"parameterNumberName":"U-component_of_WINDS"},"data":[0,0,0,0,0,0,0,0,0,0,0,0,0,0,0,0,0,0,0,0,0,0,0,0,0,0,0,0,0,0,0,0,0,0,0,0,0,0,0,0,0,0,0,0,0,0,0,0,0,0,0,0,0,0,0,0,0,0,0.8925,0.8925,0,0.8926,0.8926,0.8926,0.8914,0.8914,0.8914,0.8913,0.8912,0.8913,0.8913,0,0,0,0,0,0,0,0,0,0,0,0,0,0.8909,0.891,0.8925,0.8925,0.8925,0.8926,0.8926,0.8926,0.8914,0.8914,0.8914,0.8913,0.8912,0.8913,0.8913,0,0,0,0,0,0,0,0,0,0,0,0,0,0.8914,0.891,0.8925,0.8919,0.8919,0.8926,0.8926,0.8926,0.8914,0.8914,0.8913,0.8913,0.8912,0.8913,0.8913,0.8925,0,0,0.8914,0.8914,0,0,0,0,0,0,0,0,0.8914,0.8914,0.892,0.892,0.8919,0.892,0.892,0.8926,0.8915,0.8916,0.8913,0.8913,0.8915,0.8915,0.8916,0.8925,0.8925,0.8914,0.8915,0.8915,0.8915,0,0,0,0,0,0,0,0.8913,0.8914,0.8925,0.892,0.892,0.8916,0.8916,0.8921,0.8918,0.8916,0.8915,0.8915,0.8915,0.8916,0.8916,0.8925,0.8914,0.8915,0.8915,0.8915,0.8941,0.8941,0,0,0,0,0,0,0.8914,0.8914,0.8925,0.8925,0.8915,0.8916,0.8916,0.892,0.8918,0.8917,0.8916,0.8915,0.8916,0.8916,0.8916,0.8929,0.8915,0.8915,0.8915,0.894,0.8941,0.8941,0,0,0,0,0,0,0.8914,0.8915,0.8925,0.892,0.8921,0.8917,0.8921,0.892,0.8922,0.8918,0.8917,0.8918,0.8915,0.8916,0.8922,0.8928,0.8915,0.8916,0.894,0.894,0.8941,0.8954,0,0,0,0,0,0,0.8914,0.8915,0.8921,0.892,0.8921,0.8933,0.8922,0.8921,0.8923,0.8921,0.892,0.8919,0.8915,0.8922,0.8923,0.8929,0.8916,0.8939,0.894,0.8941,0.8953,0.8955,0.8957,0,0,0,0,0,0.8913,0.8925,0.8921,0.8923,0.8928,0.8933,0.8934,0.8929,0.8923,0.8928,0.8925,0.8919,0.8928,0.8923,0.8924,0.893,0.8939,0.894,0.8941,0.8953,0.8955,0.8957,0,0,0,0,0,0,0.8927,0.8925,0.8921,0.8933,0.8933,0.8931,0.8937,0.8932,0.8934,0.8933,0.8926,0.8926,0.8933,0.8932,0.8927,0.894,0.8932,0.8933,0.8941,0.8943,0.8945,0.8945,0.8916,0,0,0,0,0,0.8931,0.8936,0.8934,0.8945,0.8945,0.8941,0.8943,0.894,0.894,0.894,0.8938,0.8937,0.8939,0.8941,0.8943,0.8953,0.8951,0.8957,0.8959,0.8961,0.8962,0.8965,0.8967,0.8944,0.8944,0.8944,0,0,0.894,0.894,0.8943,0.8947,0.8947,0.8951,0.8941,0.8947,0.895,0.894,0.8946,0.8945,0.8943,0.8951,0.8955,0.8951,0.8968,0.8962,0.8963,0.8964,0.8966,0.8968,0.897,0.8945,0.8945,0.8945,0,0,0.8959,0.896,0.8968,0.8968,0.8967,0.8964,0.8966,0.8965,0.8963,0.8969,0.8962,0.8964,0.8969,0.8968,0.8968,0.8983,0.8977,0.8984,0.8994,0.8997,0.8998,0.9,0.9004,0.9006,0.8985,0.8985,0.8985,0,0.897,0.8977,0.8972,0.8978,0.8979,0.897,0.8977,0.8977,0.8978,0.8978,0.8973,0.8978,0.8976,0.8983,0.8986,0.8987,0.8988,0.8984,0.8999,0.9,0.9002,0.9005,0.9007,0.8986,0.8986,0.8986,0.8986,0,0.899,0.8995,0.9001,0.9002,0.9003,0.901,0.9004,0.9006,0.9002,0.8999,0.9004,0.9002,0.9002,0.9003,0.8999,0.9009,0.9006,0.9,0.8992,0.9005,0.9008,0.9009,0.8987,0.8987,0.8987,0.8986,0,0,0.9018,0.9015,0.9017,0.9016,0.9014,0.9017,0.9022,0.9023,0.9024,0.9024,0.9027,0.903,0.9024,0.9024,0.902,0.9022,0.9033,0.9016,0.9016,0.9018,0.9041,0.9044,0.9046,0.9028,0.9029,0.9029,0.904,0,0.9035,0.9044,0.9039,0.9048,0.9051,0.9042,0.9046,0.9045,0.9041,0.9043,0.9039,0.904,0.9033,0.9033,0.9035,0.9031,0.9037,0.903,0.903,0.903,0.903,0.9048,0.9053,0.9064,0.9042,0.9042,0.9042,0,0.9057,0.9057,0.9067,0.9062,0.9064,0.9067,0.9066,0.9068,0.9066,0.9063,0.9062,0.9056,0.9059,0.9051,0.9053,0.9049,0.9048,0.9045,0.9046,0.9045,0.9036,0.9047,0.9067,0.9068,0.9044,0.9044,0.9044,0,0.9074,0.9078,0.9083,0.9083,0.9079,0.9081,0.9079,0.9076,0.9076,0.9075,0.9074,0.9074,0.9073,0.9072,0.9065,0.906,0.9068,0.9059,0.9064,0.9064,0.9066,0.9066,0.9085,0.9067,0.9067,0.9067,0.9067,0,0.9093,0.9099,0.9091,0.9094,0.91,0.9093,0.9098,0.9095,0.9092,0.9093,0.9085,0.9087,0.9078,0.9078,0.9072,0.9074,0.9074,0.9071,0.9069,0.9072,0.9072,0.9071,0.9069,0.9067,0.9067,0.9067,0.9067,0,0.9114,0.9109,0.9114,0.9109,0.9108,0.9112,0.9107,0.9109,0.9105,0.9107,0.9107,0.9099,0.9099,0.9092,0.909,0.9086,0.9089,0.9087,0.909,0.9089,0.9094,0.9093,0.9113,0.9114,0.9096,0.9096,0.9096,0,0.9127,0.9131,0.9126,0.9126,0.9125,0.9126,0.9126,0.9118,0.9118,0.9114,0.9116,0.9115,0.9114,0.9112,0.9106,0.9104,0.9101,0.9107,0.91,0.9101,0.9099,0.9099,0.9098,0.9109,0.9109,0.9109,0.911,0,0.9148,0.9145,0.9145,0.9144,0.9144,0.9143,0.9141,0.9142,0.9133,0.9133,0.9132,0.9131,0.9128,0.9126,0.9123,0.9119,0.9112,0.9112,0.9113,0.9114,0.9116,0.9114,0.9094,0.9111,0.9111,0.9111,0.9111,0.9111,0.9164,0.9167,0.9163,0.9163,0.9161,0.9159,0.916,0.9155,0.9155,0.9152,0.9148,0.9147,0.9142,0.9137,0.9133,0.9132,0.9128,0.913,0.913,0.913,0.9131,0.9117,0.9131,0.9131,0.9131,0.9131,0.9131,0,0.9184,0.9181,0.9182,0.9179,0.9178,0.9172,0.9169,0.9169,0.9169,0.9165,0.9163,0.9161,0.9159,0.9152,0.9149,0.9149,0.9145,0.9148,0.9148,0.9147,0.9135,0.9134,0.9151,0.9151,0.9151,0.9151,0.9151,0.9151,0.9195,0.9198,0.9194,0.9195,0.9192,0.9192,0.919,0.9188,0.9185,0.9183,0.9181,0.9177,0.9171,0.9167,0.9164,0.9162,0.916,0.9164,0.9161,0.915,0.9148,0.9146,0.9145,0.9164,0.9164,0.9173,0.9173,0.9173]},{"header":{"parameterUnit":"m.s-1","parameterCategory":1,"la1":30.2991,"la2":30.254,"lo1":-89.0895,"lo2":-89.0444,"dy":0.0017,"dx":0.0017,"nx":28,"ny":28,"refTime":"2025-08-17T09:00:00:Z","depth":0,"parameterNumber":3,"parameterNumberName":"V-component_of_WINDS"},"data":[0,0,0,0,0,0,0,0,0,0,0,0,0,0,0,0,0,0,0,0,0,0,0,0,0,0,0,0,0,0,0,0,0,0,0,0,0,0,0,0,0,0,0,0,0,0,0,0,0,0,0,0,0,0,0,0,0,0,-0.3044,-0.3045,0,-0.3188,-0.319,-0.3192,-0.3256,-0.3256,-0.3256,-0.3256,-0.3409,-0.3413,-0.3417,0,0,0,0,0,0,0,0,0,0,0,0,0,-0.2829,-0.2833,-0.3043,-0.3045,-0.3047,-0.3188,-0.319,-0.3192,-0.3256,-0.3256,-0.3256,-0.3256,-0.3408,-0.3413,-0.3418,0,0,0,0,0,0,0,0,0,0,0,0,0,-0.2943,-0.2834,-0.3043,-0.3096,-0.3102,-0.3188,-0.319,-0.3193,-0.3257,-0.3256,-0.3256,-0.3256,-0.3406,-0.3412,-0.3419,-0.3464,0,0,-0.3438,-0.3441,0,0,0,0,0,0,0,0,-0.2936,-0.2951,-0.3086,-0.3093,-0.31,-0.3204,-0.3171,-0.3284,-0.3257,-0.3198,-0.3256,-0.3256,-0.3341,-0.3353,-0.3381,-0.3471,-0.3477,-0.3439,-0.3442,-0.3445,-0.3447,0,0,0,0,0,0,0,-0.2928,-0.2945,-0.3101,-0.3088,-0.3096,-0.3115,-0.3131,-0.3193,-0.327,-0.3203,-0.3208,-0.3224,-0.3345,-0.3375,-0.3385,-0.348,-0.3438,-0.3444,-0.3448,-0.3451,-0.3617,-0.3618,0,0,0,0,0,0,-0.2911,-0.2938,-0.3096,-0.3105,-0.3015,-0.3119,-0.3137,-0.3171,-0.3269,-0.3284,-0.3224,-0.3227,-0.3364,-0.3378,-0.3391,-0.3452,-0.3445,-0.3451,-0.3455,-0.3617,-0.3618,-0.3618,0,0,0,0,0,0,-0.2906,-0.2925,-0.3091,-0.3023,-0.3046,-0.3123,-0.3161,-0.3174,-0.3204,-0.3285,-0.33,-0.324,-0.3364,-0.3382,-0.3446,-0.3458,-0.3454,-0.346,-0.3616,-0.3617,-0.3618,-0.3573,0,0,0,0,0,0,-0.29,-0.2922,-0.2939,-0.3023,-0.3049,-0.3141,-0.3162,-0.3177,-0.3214,-0.3218,-0.3304,-0.3318,-0.3365,-0.3436,-0.3452,-0.3467,-0.3465,-0.3615,-0.3617,-0.3618,-0.3574,-0.3572,-0.3571,0,0,0,0,0,-0.2892,-0.2921,-0.2939,-0.2958,-0.307,-0.3141,-0.3156,-0.3209,-0.3214,-0.3233,-0.3286,-0.3315,-0.3454,-0.3442,-0.346,-0.3477,-0.3615,-0.3616,-0.3618,-0.3575,-0.3573,-0.3571,0,0,0,0,0,0,-0.2837,-0.2933,-0.2954,-0.301,-0.3067,-0.3152,-0.3176,-0.3205,-0.3262,-0.3264,-0.3329,-0.3348,-0.3407,-0.3449,-0.3433,-0.3528,-0.3537,-0.3542,-0.3498,-0.3497,-0.3496,-0.3485,-0.347,0,0,0,0,0,-0.2831,-0.2879,-0.2961,-0.3003,-0.303,-0.3098,-0.3131,-0.3167,-0.3229,-0.3253,-0.3311,-0.3371,-0.3429,-0.3465,-0.3523,-0.3581,-0.3602,-0.3602,-0.3601,-0.3599,-0.3603,-0.3639,-0.3641,-0.3623,-0.3623,-0.3623,0,0,-0.282,-0.2878,-0.2904,-0.2993,-0.3041,-0.3091,-0.3118,-0.3169,-0.3207,-0.3262,-0.3325,-0.337,-0.3442,-0.3503,-0.3533,-0.354,-0.3613,-0.3601,-0.3599,-0.3604,-0.3641,-0.3642,-0.3644,-0.3624,-0.3623,-0.3623,0,0,-0.2826,-0.2873,-0.2915,-0.2963,-0.3035,-0.308,-0.309,-0.3171,-0.3203,-0.3267,-0.331,-0.3358,-0.3455,-0.3505,-0.3543,-0.357,-0.3601,-0.3588,-0.3581,-0.3615,-0.3617,-0.3618,-0.363,-0.3633,-0.3591,-0.3591,-0.3591,0,-0.2803,-0.2878,-0.2933,-0.2982,-0.3021,-0.3072,-0.3115,-0.316,-0.3247,-0.3274,-0.328,-0.3405,-0.3457,-0.3532,-0.3539,-0.3568,-0.3583,-0.3578,-0.3612,-0.3614,-0.3616,-0.3628,-0.3632,-0.3589,-0.3589,-0.359,-0.359,0,-0.2848,-0.29,-0.2925,-0.3007,-0.3049,-0.3095,-0.3159,-0.3196,-0.3229,-0.3274,-0.3341,-0.3406,-0.3478,-0.3499,-0.3531,-0.3579,-0.3581,-0.3599,-0.3609,-0.3615,-0.3627,-0.3632,-0.3586,-0.3587,-0.3588,-0.3588,0,0,-0.2821,-0.2934,-0.2943,-0.2982,-0.3066,-0.3109,-0.3159,-0.3228,-0.3259,-0.3319,-0.3364,-0.3446,-0.3463,-0.3507,-0.3546,-0.3577,-0.3597,-0.3591,-0.3594,-0.3591,-0.3656,-0.3642,-0.3646,-0.3617,-0.3618,-0.3619,-0.365,0,-0.2839,-0.2928,-0.298,-0.3049,-0.3099,-0.315,-0.3194,-0.3252,-0.3296,-0.3347,-0.3398,-0.3455,-0.3473,-0.35,-0.3532,-0.3587,-0.3611,-0.3586,-0.3662,-0.3664,-0.3642,-0.3652,-0.3638,-0.3664,-0.3655,-0.3656,-0.3656,0,-0.2871,-0.2929,-0.3002,-0.3083,-0.3106,-0.3144,-0.3214,-0.3261,-0.3329,-0.336,-0.3409,-0.3449,-0.3507,-0.3513,-0.3595,-0.3577,-0.3612,-0.3644,-0.3646,-0.3655,-0.366,-0.3663,-0.3674,-0.3678,-0.3664,-0.3664,-0.3663,0,-0.2846,-0.2942,-0.2999,-0.3031,-0.3126,-0.3153,-0.3194,-0.3262,-0.3301,-0.3363,-0.3389,-0.3457,-0.3494,-0.3547,-0.3606,-0.3604,-0.3682,-0.3693,-0.3712,-0.371,-0.3725,-0.3724,-0.3742,-0.3747,-0.3746,-0.3746,-0.3746,0,-0.286,-0.2903,-0.2989,-0.3024,-0.3076,-0.3136,-0.3186,-0.3232,-0.3292,-0.3339,-0.3388,-0.3431,-0.3505,-0.3559,-0.3605,-0.3667,-0.3683,-0.3712,-0.3723,-0.3708,-0.3704,-0.3731,-0.3731,-0.3748,-0.3747,-0.3747,-0.3747,0,-0.284,-0.2899,-0.2965,-0.305,-0.3073,-0.3107,-0.3181,-0.3219,-0.3267,-0.3326,-0.3343,-0.3419,-0.3485,-0.3548,-0.3636,-0.3668,-0.373,-0.3745,-0.3706,-0.3713,-0.3728,-0.3726,-0.3766,-0.3775,-0.3771,-0.3771,-0.3771,0,-0.2845,-0.288,-0.2969,-0.3003,-0.3043,-0.3098,-0.3138,-0.32,-0.3241,-0.3323,-0.3351,-0.342,-0.3479,-0.3582,-0.3647,-0.3715,-0.3733,-0.3742,-0.3744,-0.3728,-0.3735,-0.3732,-0.3737,-0.3741,-0.374,-0.374,-0.374,0,-0.2849,-0.2877,-0.2932,-0.2999,-0.3045,-0.3101,-0.3158,-0.3184,-0.3258,-0.3302,-0.3369,-0.3415,-0.3505,-0.3574,-0.3651,-0.3696,-0.3732,-0.3739,-0.3747,-0.3731,-0.3708,-0.3722,-0.3703,-0.3738,-0.3738,-0.3738,-0.3738,-0.3738,-0.2843,-0.2877,-0.2945,-0.3006,-0.3056,-0.3109,-0.3149,-0.3202,-0.3258,-0.3336,-0.337,-0.3438,-0.3509,-0.3615,-0.3661,-0.3717,-0.3725,-0.3737,-0.374,-0.3742,-0.3739,-0.3698,-0.3731,-0.3731,-0.3732,-0.3732,-0.3732,0,-0.285,-0.2897,-0.2952,-0.3031,-0.308,-0.3107,-0.3173,-0.3213,-0.3272,-0.3334,-0.339,-0.3469,-0.3537,-0.3607,-0.368,-0.3712,-0.373,-0.3729,-0.3727,-0.3738,-0.3727,-0.3713,-0.3713,-0.3713,-0.3713,-0.3713,-0.3713,-0.3713,-0.286,-0.2919,-0.2955,-0.3041,-0.3089,-0.3155,-0.319,-0.3241,-0.3291,-0.3376,-0.3432,-0.3477,-0.3544,-0.3622,-0.3686,-0.3706,-0.3731,-0.3725,-0.3749,-0.3737,-0.3738,-0.3739,-0.3727,-0.373,-0.373,-0.3756,-0.3756,-0.3756]}]]